Find Starlink 5245

NORAD ID: 54168 Int'l Des: 2022-141 Owner: SPXS Country: US Constellation: starlink operational
LEOCIRCULAR

实时位置

正在加载3D地球...

关于 Starlink 5245

正在加载描述...

即将过境

Passes for default location (London). Set your location on the main map for personalized predictions.

高度历史

Loading altitude history...

两行轨道根数

1 54168U 22141M 26122.72381206 -.00002420 00000-0 -13397-3 0 9992
2 54168 53.2169 121.6436 0001290 91.8403 268.2737 15.08848937194015
Epoch: May 2, 2026 • Age: 11 hours

当前状态

高度 557.1 km
速度 7.58 km/s
星下点 -48.20°S, 139.3°E
发射日期 Oct 28, 2022
运行时间 3.5 years
类型 internet

技术详情

分类 Payload
质量 305.00 kg
干质量 290.00 kg
总质量 305.00 kg
长度 0.20 m
直径 2.80 m
跨度 9.00 m
形状 Box + pan
制造商 SPXS
平台类型 Starlink
阶段状态 In Orbit
所有者/国家 SPXS/US

Most Searched